Flag for Germany Weather past 2 weeks in Bitterfeld-Wolfen, Saxony-Anhalt, Germany

Now
50 °F

Light rain. Overcast.


Feels Like: 45 °F
Forecast: 42 / 58 °F
Wind: 15 mph from Northwest

Location: Leipzig-Schkeuditz

Current Time: Sep 22, 2014 at 10:23:19 PM

Latest Report: Sep 22, 2014 at 9:50 PM


Visibility: N/A

Pressure: 29.98 "Hg

Humidity: 88%

Dew point: 46 °F

Location of Bitterfeld-WolfenLocation

Historic Weather in Bitterfeld-Wolfen — Graph

°F

Bitterfeld-Wolfen temperature yesterday

Maximum temperature yesterday: 64 °F (at 1:50 PM)
Minimum temperature yesterday: 55 °F (at 10:20 PM)
Average temperature yesterday: 60 °F

Past Weeks' High & Low Weather Summary

 TemperatureHumidityPressure
High75 °F (Sep 16, 3:20 PM)100% (Sep 8, 2:20 AM)30.15 "Hg (Sep 8, 2:20 AM)
Low50 °F (Sep 9, 6:20 AM)44% (Sep 17, 4:50 PM)29.89 "Hg (Sep 19, 3:50 PM)
Average61 °F88%30.01 "Hg
* Reported Sep 7 9:20 PM — Sep 22 9:20 PM, Bitterfeld-Wolfen, Weather by CustomWeather, © 2014

Note: Actual official high and low records may vary slightly from our data, if they occured in-between our weather recording intervals... More about our weather records

Advertising

Bitterfeld-Wolfen weather history for previous 24 hours

 ConditionsComfort  
Time TempWeatherWind HumidityBarometerVisibility
9:20 PM
Sep 22
50 °FLight rain. Overcast.13 mph88%29.98 "HgN/A
8:50 PM50 °FLight rain. Mostly cloudy.13 mph88%29.98 "HgN/A
8:20 PM50 °FLight rain. Mostly cloudy.10 mph88%29.98 "HgN/A
7:50 PM50 °FLight rain. Mostly cloudy.10 mph88%29.98 "HgN/A
7:20 PM50 °FLight rain. More clouds than sun.12 mph88%29.98 "HgN/A
6:50 PM50 °FLight rain. More clouds than sun.20 mph82%29.95 "HgN/A
6:20 PM54 °FSprinkles. Partly sunny.15 mph67%29.95 "HgN/A
5:50 PM54 °FSprinkles. Broken clouds.9 mph82%29.92 "HgN/A
5:20 PM54 °FPartly sunny.10 mph77%29.92 "HgN/A
4:50 PM52 °FPartly sunny.9 mph77%29.92 "HgN/A
4:20 PM52 °FPartly sunny.13 mph72%29.92 "HgN/A
3:50 PM52 °FSprinkles. Scattered clouds.16 mph72%29.92 "HgN/A
3:20 PM52 °FSprinkles. Scattered clouds.18 mph72%29.92 "HgN/A
2:50 PM55 °FScattered clouds.18 mph67%29.89 "HgN/A
2:20 PM54 °FPartly sunny.18 mph72%29.89 "HgN/A
1:50 PM52 °FPartly sunny.17 mph72%29.89 "HgN/A
1:20 PM52 °FPartly sunny.13 mph77%29.89 "HgN/A
12:50 PM54 °FPartly sunny.17 mph67%29.89 "HgN/A
12:20 PM52 °FScattered clouds.15 mph82%29.89 "HgN/A
11:50 AM54 °FSprinkles. Scattered clouds.16 mph82%29.89 "HgN/A
11:20 AM54 °FSprinkles. Partly sunny.17 mph82%29.89 "HgN/A
10:50 AM55 °FBroken clouds.20 mph77%29.89 "HgN/A
10:20 AM55 °FPartly sunny.18 mph77%29.89 "HgN/A
9:50 AM55 °FBroken clouds.17 mph82%29.89 "HgN/A
9:20 AM54 °FBroken clouds.16 mph88%29.89 "HgN/A
8:50 AM54 °FBroken clouds.16 mph82%29.89 "HgN/A
8:20 AM54 °FBroken clouds.16 mph88%29.92 "HgN/A
7:50 AM54 °FPassing clouds.16 mph88%29.92 "HgN/A
7:20 AM54 °FPassing clouds.14 mph88%29.92 "HgN/A
6:50 AM54 °FPartly cloudy.12 mph88%29.92 "HgN/A
6:20 AM54 °FPassing clouds.13 mph88%29.92 "HgN/A
5:50 AM54 °FPassing clouds.14 mph88%29.92 "HgN/A
5:20 AM54 °FPassing clouds.13 mph88%29.92 "HgN/A
4:50 AM54 °FPartly cloudy.14 mph88%29.92 "HgN/A
4:20 AM54 °FPassing clouds.14 mph88%29.92 "HgN/A
3:50 AM54 °FPassing clouds.14 mph88%29.92 "HgN/A
3:20 AM54 °FPartly cloudy.14 mph88%29.92 "HgN/A
2:50 AM54 °FPartly cloudy.14 mph88%29.92 "HgN/A
2:20 AM54 °FClear.13 mph88%29.92 "Hg10 mi
1:50 AM54 °FClear.12 mph88%29.92 "Hg10 mi
1:20 AM54 °FClear.14 mph88%29.92 "Hg10 mi
12:50 AM54 °FClear.14 mph88%29.92 "Hg10 mi
12:20 AM54 °FClear.13 mph88%29.92 "Hg10 mi
11:50 PM
Sep 21
55 °FClear.14 mph82%29.92 "Hg10 mi
11:20 PM55 °FClear.15 mph82%29.92 "Hg10 mi
10:20 PM55 °FClear.14 mph88%29.92 "Hg10 mi
Weather by CustomWeather, © 2014

See weather overviewHow to use our weather pages